Location: ????????
(52.5667°N, 53.3833°E)
Time: 02:01:23
(UTC+00:00)

Daily predictions for brighter satellites

Satellite Brightness Start Highest point End
(mag) Time Altitude Azimuth Time Altitude Azimuth Time Altitude Azimuth
Cosmos 2219 Rocket 3.6 00:18:26 32° NE 00:18:26 32° NE 00:21:22 10° NE
Cosmos 2237 Rocket 3.7 00:19:22 30° ESE 00:19:55 31° ESE 00:24:51 10° NE
Cosmos 2333 Rocket 3.2 00:40:34 38° NNE 00:40:34 38° NNE 00:44:02 10° NNE
FENGYUN 3A 4.3 00:36:29 10° NNE 00:41:44 53° E 00:41:44 53° E
Cosmos 1763 Rocket 4.5 00:47:10 42° NE 00:47:10 42° NE 00:50:40 10° NNE
Cosmos 1464 Rocket 4.4 00:44:08 27° SSE 00:47:23 58° E 00:53:27 10° NNE
Cosmos 2360 Rocket 3.7 00:51:53 25° N 00:51:53 25° N 00:54:39 10° NNE
Lacrosse 4 Rocket 3.6 00:51:43 21° SE 00:52:34 22° ESE 00:55:58 10° ENE
SL-16 R/B 4.1 00:55:05 19° N 00:55:05 19° N 00:57:27 10° NNE
Meteor 1-21 Rocket 4.4 00:52:46 62° NNE 00:53:34 70° ENE 00:59:23 10° SSE
Cosmos 1980 4.2 00:53:20 51° SE 00:54:02 55° ESE 00:59:34 10° NE
Cosmos 2322 Rocket 4.0 00:56:36 20° N 00:56:36 20° N 00:58:59 10° NNE
Cosmos 841 Rocket 4.1 00:56:37 51° ESE 00:56:58 52° ESE 01:01:59 10° NNE
COSMOS 2428 3.2 01:01:05 51° N 01:01:05 51° N 01:05:27 10° NNE
MOS 1 Rocket 4.5 00:57:34 10° SE 01:02:00 40° ENE 01:04:37 21° N
NOSS 3-3 (A) 4.5 01:02:29 49° NW 01:04:48 79° NE 01:13:03 10° SE
NOSS 3-3 (C) 4.5 01:02:34 49° NW 01:04:54 79° NE 01:13:09 10° SE
Cosmos 1980 Rocket 4.4 01:06:51 13° N 01:06:51 13° N 01:09:10 10° NNE
Meteor 1-31 Rocket 4.4 01:03:48 10° NNE 01:06:31 34° ENE 01:06:31 34° ENE
USA 215 3.1 01:01:14 10° ENE 01:07:46 77° NNW 01:08:33 68° WNW
METEOR-M 4.4 01:04:09 10° NNE 01:09:31 67° ESE 01:11:56 33° S
SKYMED 2 4.5 01:06:18 10° SSE 01:09:29 44° SE 01:09:29 44° SE
Cosmos 2150 Rocket 4.3 01:12:47 47° N 01:14:12 67° ENE 01:19:35 10° SE
Nadezhda 4 Rocket 3.8 01:11:39 10° N 01:17:49 89° E 01:23:57 10° S
NOSS 0 Rocket 3.8 01:17:36 58° SSW 01:18:56 89° ESE 01:25:09 10° NNE
ATLAS CENTAUR R/B 2.8 01:19:20 29° SE 01:19:26 29° ESE 01:22:39 10° ENE
ADEOS 3.8 01:15:42 10° NNE 01:20:56 67° ESE 01:26:03 10° S
ALOS 3.1 01:17:47 10° NNE 01:20:52 41° N 01:20:52 41° N
Cosmos 2084 Rocket 4.5 01:24:11 39° SSE 01:24:11 39° SSE 01:27:07 10° SE
GEOS 3 Rocket 3.9 01:17:42 10° ESE 01:23:02 66° NE 01:24:38 45° NNW
Cosmos 1602 Rocket 3.7 01:25:58 59° NNE 01:26:41 72° E 01:31:09 10° SSE
CZ-2C R/B 3.9 01:23:28 10° N 01:25:56 26° NNW 01:25:56 26° NNW
Cosmos 2034 Rocket 4.1 01:22:28 10° S 01:28:51 81° E 01:35:13 10° NNE
Cosmos 1943 Rocket 2.5 01:28:05 28° NNW 01:31:06 63° NE 01:36:44 10° SE
Cosmos 1689 Rocket 4.5 01:30:35 10° SE 01:31:47 20° SE 01:31:47 20° SE
USA 307 4.3 01:32:22 29° S 01:33:19 32° SE 01:37:06 10° E
Cosmos 1908 3.7 01:35:10 57° NE 01:35:10 57° NE 01:38:25 10° NNE
Cosmos 1328 4.1 01:35:45 60° SE 01:35:45 60° SE 01:39:05 10° SSE
Meteor 1-16 Rocket 4.4 01:29:26 10° S 01:35:21 76° E 01:41:17 10° NNE
Cosmos 1570 Rocket 3.9 01:36:37 38° SSW 01:38:42 89° ESE 01:44:00 10° NNE
USA 305 4.1 01:38:33 31° S 01:39:37 36° SE 01:43:31 10° ENE
CZ-2C R/B 4.1 01:35:34 10° SE 01:40:20 35° ENE 01:45:13 10° N
Cosmos 2298 Rocket 3.9 01:39:21 47° NW 01:40:53 76° WSW 01:46:13 10° SSE
Cosmos 2369 Rocket 3.0 01:36:55 18° NNW 01:40:54 49° NE 01:46:18 10° SE
USA 308 4.2 01:40:57 29° S 01:42:15 36° SE 01:46:11 10° ENE
Cosmos 540 Rocket 3.3 01:41:56 60° WSW 01:42:41 70° WNW 01:47:51 10° NNE
Cosmos 1125 Rocket 3.5 01:41:15 28° NNW 01:44:09 84° ENE 01:49:29 10° SSE
Cosmos 1400 Rocket 3.0 01:41:47 21° S 01:44:30 74° E 01:48:39 10° NNE
SL-4 R/B 2.9 01:44:20 35° S 01:44:51 37° SSE 01:48:35 10° E
Cosmos 1814 Rocket 3.8 01:43:15 31° SSW 01:45:47 89° WNW 01:50:57 10° NNE
SJ-12 3.9 01:44:02 10° NNE 01:48:13 85° ESE 01:51:38 15° SSW
Cosmos 2278 Rocket 4.4 01:54:45 10° SSW 01:54:45 10° SSW 01:54:51 10° SSW
USA 306 3.9 01:50:19 30° SSW 01:51:49 41° SSE 01:55:49 10° ENE
CENTAUR R/B 3.8 01:46:48 10° S 01:52:19 40° ESE 01:58:47 10° NE
Cosmos 2026 Rocket 4.1 01:47:10 10° N 01:53:33 82° ENE 01:59:57 10° SSE
SL-16 R/B 2.8 01:50:00 10° S 01:55:31 57° ESE 02:01:05 10° NE
CZ-4B R/B 2.9 01:54:00 10° NNE 01:57:39 69° ESE 02:01:23 10° S
COSMO-SKYMED 1 2.9 01:54:28 10° S 01:58:06 46° SW 01:58:06 46° SW
Cosmos 1461 3.7 01:58:39 39° NW 01:58:51 40° NW 02:03:21 10° NE
BREEZE-M DEB (TANK) 4.2 01:56:29 37° WSW 01:58:52 73° S 02:16:51 10° E
CZ-4B R/B 4.0 01:54:53 10° N 01:59:21 63° WNW 02:01:15 32° SW
Cosmos 2219 Rocket 3.1 02:00:09 29° NW 02:00:15 29° NW 02:05:08 10° NNE
PSLV R/B 3.8 01:58:12 10° SSE 02:02:20 79° WSW 02:05:09 21° NNW
Cosmos 2237 Rocket 2.2 02:01:14 33° WSW 02:03:42 59° NW 02:09:22 10° NNE
Cosmos 2228 4.0 02:01:08 10° SSE 02:05:11 47° E 02:09:16 10° NNE
Cosmos 2208 Rocket 4.0 02:02:11 16° SW 02:06:30 71° WNW 02:11:55 10° NNE
Cosmos 1953 Rocket 4.3 02:03:11 10° N 02:07:28 54° ENE 02:11:44 10° SSE
Cosmos 1544 Rocket 4.2 02:09:08 35° NW 02:09:08 35° NW 02:12:21 10° N
ERS-2 2.7 02:13:08 10° S 02:15:59 37° SW 02:15:59 37° SW
H-2A R/B 2.6 02:12:54 10° NNE 02:16:39 88° ESE 02:20:24 10° SSW
Meteor 1-11 4.1 02:13:27 10° NNW 02:18:59 64° W 02:24:29 10° S
Cosmos 1953 3.8 02:20:58 22° NNW 02:20:58 22° NNW 02:22:48 10° N
Cosmos 2195 Rocket 4.5 02:14:39 10° NNW 02:20:49 60° W 02:26:53 10° S
Cosmos 1606 Rocket 4.1 02:16:46 10° S 02:21:01 61° E 02:25:19 10° NNE
FENGYUN 3A 4.3 02:17:11 10° N 02:21:53 32° WNW 02:23:19 28° W
Meteor PRIRODA 3.5 02:18:31 10° N 02:22:09 67° WNW 02:25:44 10° SSW
Cosmos 2333 Rocket 3.4 02:22:35 22° NW 02:23:34 23° NNW 02:28:02 10° NNE
Cosmos 1825 4.5 02:20:38 10° NNE 02:23:48 25° ENE 02:26:58 10° SE
USA 238 DEB 3.9 02:19:43 10° SSW 02:26:18 73° SE 02:33:14 10° NE
USA 238 3.9 02:19:50 10° SSW 02:26:24 72° SE 02:33:20 10° NE
Cosmos 2297 4.2 02:26:16 22° NW 02:29:22 40° WSW 02:34:40 10° S
Cosmos 1428 Rocket 4.5 02:24:04 10° NNW 02:30:16 61° W 02:36:21 10° S
Lacrosse 4 Rocket 1.5 02:28:05 21° SW 02:30:53 60° NW 02:35:16 10° NNE
Cosmos 2360 Rocket 4.0 02:33:39 13° NW 02:35:12 15° NNW 02:38:18 10° NNE
deb Chang Zheng 4 3.7 02:31:08 10° N 02:35:14 48° WNW 02:39:18 10° SW
Cosmos 1300 2.5 02:33:31 10° SSW 02:37:19 72° WNW 02:41:09 10° N
Cosmos 1980 4.3 02:35:14 21° W 02:38:23 37° NW 02:43:38 10° NNE
Cosmos 841 Rocket 4.2 02:36:45 22° W 02:39:06 32° NW 02:43:45 10° NNE
SL-16 R/B 4.3 02:37:06 10° NNW 02:39:23 12° N 02:41:39 10° NNE
Cosmos 1315 Rocket 2.6 02:36:27 10° SSW 02:40:21 81° WNW 02:44:19 10° NNE
MOS 1 Rocket 4.0 02:36:08 10° SSW 02:40:21 31° W 02:43:55 13° NW
Cosmos 2322 Rocket 4.2 02:38:25 10° NNW 02:40:37 12° N 02:42:53 10° NNE
SAR-Lupe-4 4.4 02:37:35 10° SSW 02:40:46 29° W 02:41:39 26° WNW
Meteor 1-31 Rocket 3.9 02:38:34 10° N 02:41:45 24° WNW 02:41:54 24° WNW
COSMOS 2428 4.0 02:43:07 18° WNW 02:45:05 22° NNW 02:49:26 10° NNE
Cosmos 1346 Rocket 3.5 02:43:19 17° NW 02:45:46 32° W 02:49:20 10° SSW
Cosmos 1758 Rocket 4.2 02:43:09 10° NNW 02:47:16 35° W 02:51:18 10° SSW
USA 215 3.5 02:44:08 10° ENE 02:50:32 61° N 02:55:54 15° WNW
Cosmos 1980 Rocket 4.4 02:50:25 10° NNW 02:53:10 13° NNE 02:55:55 10° NE
FALCON 9 DEB 3.0 02:55:01 20° W 02:57:13 81° N 03:00:39 10° E
ATLAS CENTAUR R/B 1.5 02:55:33 16° WSW 02:58:10 42° NW 03:01:43 10° NE
Cosmos 1441 Rocket 3.4 02:54:18 10° NNW 02:58:17 80° ENE 03:02:12 10° SSE
ALOS 3.9 02:56:37 10° NNW 02:59:10 15° NW 02:59:23 15° WNW
SL-19 R/B 4.2 02:56:38 10° NNE 03:00:31 80° ESE 03:03:51 10° SSW
GEOS 3 Rocket 4.4 02:56:23 10° S 03:01:19 36° WSW 03:05:45 13° WNW
Spot 2 3.9 02:57:22 10° NNE 03:01:27 87° W 03:05:32 10° SSW
Cosmos 2279 Rocket 4.0 02:56:13 10° SSW 03:02:27 74° WNW 03:08:45 10° N
Cosmos 2292 Rocket 2.9 02:59:45 10° NNW 03:02:39 47° W 03:05:52 10° S
CZ-4B DEB 4.2 02:57:41 10° NNE 03:03:17 82° WNW 03:08:50 10° SSW
In-Cosmos 22 Rocket 4.1 02:58:34 10° NNW 03:03:59 62° W 03:09:15 10° S
Cosmos 1689 Rocket 4.1 03:02:48 10° SW 03:03:40 13° WSW 03:03:40 13° WSW
Cosmos 1726 Rocket 3.5 03:01:04 10° SSW 03:05:21 64° WNW 03:09:41 10° N
BREEZE-M DEB (TANK) 4.3 03:02:24 10° SW 03:06:11 58° SSE 03:20:07 10° E
Cosmos 2058 Rocket 3.1 03:02:34 10° S 03:06:59 87° E 03:11:29 10° NNE
Cosmos 1892 2.7 03:03:33 10° NNW 03:07:21 58° W 03:11:08 10° S
YAOGAN 6 3.1 03:04:52 10° N 03:08:19 37° WNW 03:11:45 10° SW
Cosmos 1184 Rocket 2.9 03:08:54 10° N 03:12:10 77° ENE 03:15:26 10° SSE
Cosmos 2098 Rocket 4.3 03:07:11 10° NNW 03:12:16 31° W 03:16:26 10° SW
USA 307 2.9 03:08:47 10° WSW 03:13:02 88° SSE 03:17:17 10° ENE
Cosmos 2263 4.3 03:07:31 10° NW 03:13:05 60° WSW 03:18:41 10° SSE
Cosmos 1943 Rocket 3.1 03:09:43 10° NW 03:14:30 29° WSW 03:19:16 10° SSW
PSLV R/B 4.2 03:13:03 10° N 03:16:50 42° WNW 03:20:40 10° SW
Okean O Rocket 1.7 03:13:56 10° NNE 03:18:20 84° ESE 03:22:41 10° SSW
SMAP 3.0 03:13:44 10° NNE 03:18:24 75° WNW 03:23:03 10° SSW
FALCON 9 DEB 3.7 03:15:59 10° SW 03:18:59 49° SSE 03:22:00 10° E
USA 305 2.9 03:15:07 10° WSW 03:19:22 88° NNW 03:23:38 10° ENE
CZ-2C R/B 3.0 03:15:29 10° S 03:20:32 45° W 03:25:45 10° NNW
Cosmos 1400 Rocket 4.5 03:18:57 10° W 03:21:30 16° WNW 03:24:03 10° NNW
NOSS 3-2 (A) 3.6 03:15:39 10° WSW 03:21:31 61° NW 03:28:24 10° NE
USA 308 2.9 03:17:44 10° WSW 03:22:02 87° NNW 03:26:20 10° ENE
Cosmos 1408 2.7 03:18:56 10° NNW 03:22:27 52° W 03:25:58 10° S
Iridium 4 Rocket 4.1 03:16:56 10° S 03:22:46 75° E 03:28:40 10° N
Envisat 3.4 03:18:46 10° N 03:23:31 41° WNW 03:28:14 10° SW
SL-4 R/B 2.1 03:20:18 10° WSW 03:24:11 76° S 03:28:25 10° E
Cosmos 2369 Rocket 2.8 03:19:42 10° NW 03:24:50 38° WSW 03:29:55 10° S
Cosmos 1634 Rocket 4.5 03:19:20 10° SW 03:24:59 36° WNW 03:30:42 10° N
H-2A R/B 2.7 03:21:54 10° N 03:26:22 62° WNW 03:30:50 10° SSW
FALCON 9 DEB 3.7 03:24:32 10° SW 03:27:36 51° SSE 03:30:40 10° E
Cosmos 773 Rocket 4.2 03:25:04 10° SSW 03:30:18 78° ESE 03:35:31 10° NNE
Cosmos 1939 Rocket 2.9 03:26:29 10° NNE 03:30:26 81° ESE 03:34:17 10° SSW
USA 306 2.9 03:27:23 10° W 03:31:38 83° NNW 03:35:54 10° ENE
Cosmos 2266 Rocket 4.0 03:26:16 10° NNW 03:32:14 61° W 03:38:09 10° S
CZ-4B R/B 4.3 03:30:19 10° NNW 03:32:20 14° WNW 03:34:22 10° W
Meteor 2-10 Rocket 3.8 03:27:49 10° SSW 03:33:38 74° WNW 03:39:22 10° N
NOSS 3-2 (C) 3.5 03:29:07 10° WSW 03:34:59 71° NW 03:41:52 10° NE
Cosmos 1076 Rocket 3.5 03:31:12 10° NNW 03:35:30 86° W 03:39:44 10° S
CZ-4B R/B 3.3 03:32:03 10° NNE 03:37:43 74° WNW 03:43:17 10° SSW
Cosmos 2285 Rocket 4.1 03:33:11 10° NNW 03:39:31 84° WSW 03:45:49 10° SSE
SL-16 R/B 2.8 03:34:45 10° WSW 03:39:56 36° NW 03:45:10 10° NNE
CORIOLIS 4.1 03:36:23 10° NNE 03:41:42 67° WNW 03:47:00 10° SSW
CENTAUR R/B 2.7 03:36:25 10° WSW 03:42:40 66° NW 03:50:09 10° NE
